Location: Grange Rosano
(44.4500°N, 6.9667°E)
Time: 08:37:08
(UTC+00:00)

Cosmos 304 Rocket - Pass Details

Date: 26 May 2022
Orbit: 679 x 686 km, 74.0° (Epoch: 01 July)

Event Time Altitude Azimuth Distance (km) Brightness Sun altitude
Exits shadow 01:17:26 34° 251° (WSW) 1,125 4.5 -19.9°
Maximum altitude 01:18:55 45° 296° (WNW) 940 4.4 -19.8°
Drops below altitude 10° 01:23:33 10° 9° (N) 2,144 7.4 -19.4°
Sets 01:25:58 0° 16° (NNE) 3,064 8.6 -19.2°
